| time (UTC) | temp F | wind direction | speed knots | gust knots | rain 1hr in | rain 24hr in | rain mn in | humidity % | barometer mb |
| 20260510224504 | 57 | 335 | 1.7 | 7.8 | 0.00 | 0.00 | 0.00 | 36 | 1019.4 |
| 20260510224213 | 57 | 314 | 1.7 | 7.8 | 0.00 | 0.00 | 0.00 | 35 | 1019.4 |
| 20260510223717 | 57 | 304 | 1.7 | 7.0 | 0.00 | 0.00 | 0.00 | 36 | 1019.4 |
| 20260510223004 | 57 | 334 | 3.5 | 7.0 | 0.00 | 0.00 | 0.00 | 37 | 1019.4 |
| 20260510222504 | 57 | 324 | 3.5 | 7.0 | 0.00 | 0.00 | 0.00 | 34 | 1019.4 |
| 20260510222004 | 57 | 324 | 2.6 | 7.8 | 0.00 | 0.00 | 0.00 | 33 | 1019.3 |
| 20260510221504 | 57 | 306 | 2.6 | 7.8 | 0.00 | 0.00 | 0.00 | 36 | 1019.3 |
| 20260510221003 | 57 | 279 | 2.6 | 7.0 | 0.00 | 0.00 | 0.00 | 34 | 1019.2 |
| 20260510220714 | 57 | 298 | 2.6 | 7.0 | 0.00 | 0.00 | 0.00 | 33 | 1019.2 |
| 20260510220004 | 57 | 327 | 2.6 | 7.8 | 0.00 | 0.00 | 0.00 | 36 | 1019.2 |
| 20260510215503 | 57 | 340 | 3.5 | 8.7 | 0.00 | 0.00 | 0.00 | 36 | 1019.2 |
| 20260510215004 | 58 | 345 | 2.6 | 8.7 | 0.00 | 0.00 | 0.00 | 36 | 1019.0 |
| 20260510214504 | 57 | 350 | 1.7 | 7.0 | 0.00 | 0.00 | 0.00 | 39 | 1019.1 |
| 20260510214003 | 57 | 349 | 2.6 | 8.7 | 0.00 | 0.00 | 0.00 | 34 | 1019.1 |
| 20260510213504 | 57 | 356 | 2.6 | 8.7 | 0.00 | 0.00 | 0.00 | 37 | 1019.1 |
| 20260510213004 | 57 | 350 | 2.6 | 7.0 | 0.00 | 0.00 | 0.00 | 36 | 1019.1 |
| 20260510212713 | 57 | 319 | 2.6 | 7.8 | 0.00 | 0.00 | 0.00 | 35 | 1019.1 |
| 20260510212216 | 57 | 330 | 2.6 | 7.8 | 0.00 | 0.00 | 0.00 | 38 | 1019.2 |
| 20260510211504 | 57 | 343 | 4.3 | 8.7 | 0.00 | 0.00 | 0.00 | 37 | 1019.2 |
| 20260510211004 | 57 | 337 | 4.3 | 8.7 | 0.00 | 0.00 | 0.00 | 36 | 1019.1 |
| 20260510210503 | 56 | 328 | 3.5 | 7.8 | 0.00 | 0.00 | 0.00 | 36 | 1019.1 |
| 20260510210004 | 57 | 309 | 2.6 | 7.0 | 0.00 | 0.00 | 0.00 | 37 | 1019.1 |
| 20260510205503 | 57 | 316 | 3.5 | 9.6 | 0.00 | 0.00 | 0.00 | 37 | 1019.1 |
| 20260510205004 | 57 | 313 | 3.5 | 9.6 | 0.00 | 0.00 | 0.00 | 36 | 1019.1 |
| 20260510204503 | 57 | 292 | 2.6 | 8.7 | 0.00 | 0.00 | 0.00 | 40 | 1019.0 |
| 20260510204003 | 57 | 296 | 2.6 | 8.7 | 0.00 | 0.00 | 0.00 | 38 | 1019.0 |
| 20260510203718 | 57 | 307 | 2.6 | 8.7 | 0.00 | 0.00 | 0.00 | 35 | 1019.1 |
| 20260510203004 | 57 | 331 | 2.6 | 7.0 | 0.00 | 0.00 | 0.00 | 37 | 1019.1 |
| 20260510202503 | 56 | 327 | 2.6 | 7.0 | 0.00 | 0.00 | 0.00 | 40 | 1019.1 |
| 20260510202217 | 56 | 327 | 3.5 | 7.8 | 0.00 | 0.00 | 0.00 | 34 | 1019.1 |
| 20260510201503 | 56 | 337 | 5.2 | 9.6 | 0.00 | 0.00 | 0.00 | 36 | 1019.2 |
| 20260510201213 | 56 | 340 | 5.2 | 9.6 | 0.00 | 0.00 | 0.00 | 36 | 1019.1 |
| 20260510200504 | 56 | 344 | 4.3 | 10.4 | 0.00 | 0.00 | 0.00 | 36 | 1019.2 |
| 20260510200004 | 55 | 341 | 5.2 | 10.4 | 0.00 | 0.00 | 0.00 | 37 | 1019.2 |
| 20260510195504 | 56 | 344 | 5.2 | 10.4 | 0.00 | 0.00 | 0.00 | 33 | 1019.3 |
| 20260510195003 | 56 | 346 | 6.1 | 11.3 | 0.00 | 0.00 | 0.00 | 36 | 1019.2 |
| 20260510194504 | 55 | 342 | 5.2 | 13.9 | 0.00 | 0.00 | 0.00 | 35 | 1019.2 |
| 20260510194216 | 56 | 341 | 5.2 | 13.9 | 0.00 | 0.00 | 0.00 | 37 | 1019.2 |
| 20260510193503 | 56 | 342 | 6.1 | 13.0 | 0.00 | 0.00 | 0.00 | 38 | 1019.0 |
| 20260510193003 | 56 | 341 | 5.2 | 12.2 | 0.00 | 0.00 | 0.00 | 39 | 1019.0 |
| 20260510192504 | 55 | 339 | 6.1 | 13.9 | 0.00 | 0.00 | 0.00 | 40 | 1019.0 |
| 20260510192003 | 55 | 332 | 5.2 | 13.9 | 0.00 | 0.00 | 0.00 | 40 | 1019.0 |
| 20260510191504 | 56 | 329 | 5.2 | 13.9 | 0.00 | 0.00 | 0.00 | 39 | 1018.9 |
| 20260510191003 | 56 | 330 | 5.2 | 10.4 | 0.00 | 0.00 | 0.00 | 38 | 1018.9 |
| 20260510190503 | 56 | 335 | 5.2 | 10.4 | 0.00 | 0.00 | 0.00 | 41 | 1018.8 |
| 20260510190004 | 56 | 341 | 7.0 | 13.9 | 0.00 | 0.00 | 0.00 | 41 | 1018.8 |
| 20260510185503 | 55 | 339 | 6.1 | 13.9 | 0.00 | 0.00 | 0.00 | 39 | 1018.8 |
| 20260510185004 | 56 | 340 | 5.2 | 11.3 | 0.00 | 0.00 | 0.00 | 39 | 1018.9 |
| 20260510184713 | 56 | 336 | 5.2 | 11.3 | 0.00 | 0.00 | 0.00 | 39 | 1018.8 |
| 20260510184004 | 56 | 333 | 5.2 | 12.2 | 0.00 | 0.00 | 0.00 | 41 | 1018.8 |
| 20260510183504 | 56 | 332 | 6.1 | 12.2 | 0.00 | 0.00 | 0.00 | 40 | 1018.8 |
| 20260510183217 | 56 | 332 | 5.2 | 12.2 | 0.00 | 0.00 | 0.00 | 39 | 1018.9 |
| 20260510182503 | 56 | 344 | 4.3 | 11.3 | 0.00 | 0.00 | 0.00 | 38 | 1018.9 |
| 20260510182003 | 56 | 336 | 4.3 | 10.4 | 0.00 | 0.00 | 0.00 | 41 | 1018.9 |
| 20260510181504 | 56 | 329 | 4.3 | 10.4 | 0.00 | 0.00 | 0.00 | 39 | 1018.9 |
| 20260510181004 | 56 | 336 | 5.2 | 9.6 | 0.00 | 0.00 | 0.00 | 39 | 1018.8 |
| 20260510180504 | 55 | 337 | 6.1 | 13.0 | 0.00 | 0.00 | 0.00 | 40 | 1018.8 |
| 20260510180004 | 56 | 336 | 5.2 | 13.0 | 0.00 | 0.00 | 0.00 | 40 | 1018.9 |
| 20260510175503 | 55 | 328 | 4.3 | 9.6 | 0.00 | 0.00 | 0.00 | 40 | 1018.8 |
| 20260510175003 | 55 | 326 | 5.2 | 14.8 | 0.00 | 0.00 | 0.00 | 39 | 1018.8 |
| 20260510174503 | 55 | 330 | 5.2 | 14.8 | 0.00 | 0.00 | 0.00 | 37 | 1018.8 |
| 20260510174004 | 56 | 318 | 3.5 | 13.0 | 0.00 | 0.00 | 0.00 | 39 | 1018.7 |
| 20260510173715 | 55 | 310 | 3.5 | 11.3 | 0.00 | 0.00 | 0.00 | 44 | 1018.7 |
| 20260510173004 | 54 | 322 | 5.2 | 11.3 | 0.00 | 0.00 | 0.00 | 39 | 1018.8 |
| 20260510172504 | 54 | 333 | 5.2 | 8.7 | 0.00 | 0.00 | 0.00 | 39 | 1018.8 |
| 20260510172006 | 55 | 336 | 5.2 | 15.6 | 0.00 | 0.00 | 0.00 | 39 | 1018.7 |
| 20260510171503 | 54 | 336 | 7.0 | 15.6 | 0.00 | 0.00 | 0.00 | 41 | 1018.8 |
| 20260510171003 | 54 | 336 | 6.1 | 13.0 | 0.00 | 0.00 | 0.00 | 40 | 1018.7 |
| 20260510170712 | 54 | 335 | 6.1 | 12.2 | 0.00 | 0.00 | 0.00 | 39 | 1018.7 |
| 20260510170004 | 54 | 342 | 5.2 | 12.2 | 0.00 | 0.00 | 0.00 | 38 | 1018.8 |
| 20260510165713 | 54 | 340 | 6.1 | 12.2 | 0.00 | 0.00 | 0.00 | 40 | 1018.8 |
| 20260510165003 | 54 | 342 | 5.2 | 12.2 | 0.00 | 0.00 | 0.00 | 39 | 1018.8 |
| 20260510164503 | 54 | 345 | 4.3 | 9.6 | 0.00 | 0.00 | 0.00 | 42 | 1018.9 |
| 20260510164003 | 54 | 321 | 4.3 | 9.6 | 0.00 | 0.00 | 0.00 | 44 | 1018.8 |
| 20260510163503 | 54 | 307 | 4.3 | 9.6 | 0.00 | 0.00 | 0.00 | 40 | 1018.9 |
| 20260510163003 | 54 | 336 | 4.3 | 8.7 | 0.00 | 0.00 | 0.00 | 43 | 1018.8 |
| 20260510162504 | 54 | 330 | 4.3 | 8.7 | 0.00 | 0.00 | 0.00 | 41 | 1018.8 |
| 20260510162003 | 54 | 309 | 4.3 | 10.4 | 0.00 | 0.00 | 0.00 | 42 | 1018.8 |
| 20260510161504 | 53 | 320 | 4.3 | 10.4 | 0.00 | 0.00 | 0.00 | 41 | 1018.7 |
| 20260510161003 | 53 | 326 | 5.2 | 11.3 | 0.00 | 0.00 | 0.00 | 41 | 1018.7 |
| 20260510160713 | 53 | 328 | 5.2 | 11.3 | 0.00 | 0.00 | 0.00 | 42 | 1018.7 |
| 20260510160003 | 53 | 332 | 4.3 | 8.7 | 0.00 | 0.00 | 0.00 | 45 | 1018.7 |
| 20260510155503 | 53 | 324 | 4.3 | 8.7 | 0.00 | 0.00 | 0.00 | 45 | 1018.7 |
| 20260510155004 | 52 | 317 | 4.3 | 8.7 | 0.00 | 0.00 | 0.00 | 45 | 1018.6 |
| 20260510154504 | 52 | 314 | 3.5 | 9.6 | 0.00 | 0.00 | 0.00 | 47 | 1018.6 |
| 20260510154213 | 52 | 317 | 3.5 | 10.4 | 0.00 | 0.00 | 0.00 | 50 | 1018.5 |
| 20260510153503 | 52 | 321 | 4.3 | 10.4 | 0.00 | 0.00 | 0.00 | 49 | 1018.5 |
| 20260510153004 | 52 | 320 | 4.3 | 10.4 | 0.00 | 0.00 | 0.00 | 49 | 1018.5 |
| 20260510152503 | 51 | 310 | 3.5 | 9.6 | 0.00 | 0.00 | 0.00 | 49 | 1018.5 |
| 20260510152003 | 51 | 308 | 2.6 | 9.6 | 0.00 | 0.00 | 0.00 | 52 | 1018.5 |
| 20260510151718 | 50 | 306 | 3.5 | 7.8 | 0.00 | 0.00 | 0.00 | 51 | 1018.5 |
| 20260510151004 | 50 | 302 | 2.6 | 7.0 | 0.00 | 0.00 | 0.00 | 53 | 1018.6 |
| 20260510150503 | 50 | 320 | 2.6 | 7.0 | 0.00 | 0.00 | 0.00 | 55 | 1018.6 |
| 20260510150004 | 48 | 320 | 2.6 | 7.0 | 0.00 | 0.00 | 0.00 | 56 | 1018.6 |
| 20260510145715 | 48 | 324 | 2.6 | 7.0 | 0.00 | 0.00 | 0.00 | 57 | 1018.6 |
| 20260510145003 | 49 | 328 | 3.5 | 7.8 | 0.00 | 0.00 | 0.00 | 57 | 1018.7 |
| 20260510144503 | 48 | 334 | 2.6 | 7.8 | 0.00 | 0.00 | 0.00 | 59 | 1018.6 |
| 20260510144004 | 48 | 338 | 2.6 | 5.2 | 0.00 | 0.00 | 0.00 | 61 | 1018.5 |
| 20260510143504 | 48 | 332 | 2.6 | 5.2 | 0.00 | 0.00 | 0.00 | 63 | 1018.5 |
| 20260510143004 | 47 | 332 | 3.5 | 7.8 | 0.00 | 0.00 | 0.00 | 63 | 1018.6 |
| 20260510142504 | 47 | 332 | 4.3 | 7.8 | 0.00 | 0.00 | 0.00 | 61 | 1018.5 |
| 20260510142004 | 47 | 332 | 2.6 | 7.0 | 0.00 | 0.00 | 0.00 | 63 | 1018.4 |
| 20260510141504 | 48 | 332 | 2.6 | 6.1 | 0.00 | 0.00 | 0.00 | 63 | 1018.5 |
| 20260510141003 | 47 | 332 | 2.6 | 5.2 | 0.00 | 0.00 | 0.00 | 65 | 1018.5 |
| 20260510140504 | 47 | 334 | 2.6 | 7.0 | 0.00 | 0.00 | 0.00 | 66 | 1018.5 |
| 20260510140004 | 47 | 338 | 2.6 | 7.0 | 0.00 | 0.00 | 0.00 | 65 | 1018.4 |
| 20260510135715 | 47 | 340 | 2.6 | 7.0 | 0.00 | 0.00 | 0.00 | 65 | 1018.4 |
| 20260510135213 | 47 | 341 | 3.5 | 6.1 | 0.00 | 0.00 | 0.00 | 66 | 1018.3 |
| 20260510134504 | 46 | 334 | 3.5 | 8.7 | 0.00 | 0.00 | 0.00 | 66 | 1018.3 |
| 20260510134214 | 47 | 336 | 3.5 | 8.7 | 0.00 | 0.00 | 0.00 | 65 | 1018.2 |
| 20260510133503 | 47 | 346 | 3.5 | 7.0 | 0.00 | 0.00 | 0.00 | 64 | 1018.1 |
| 20260510133003 | 47 | 349 | 3.5 | 7.0 | 0.00 | 0.00 | 0.00 | 66 | 1018.1 |
| 20260510132504 | 47 | 345 | 3.5 | 7.0 | 0.00 | 0.00 | 0.00 | 65 | 1018.0 |
| 20260510132004 | 47 | 341 | 3.5 | 7.0 | 0.00 | 0.00 | 0.00 | 65 | 1018.0 |
| 20260510131503 | 47 | 341 | 3.5 | 7.0 | 0.00 | 0.00 | 0.00 | 67 | 1018.0 |
| 20260510131003 | 46 | 338 | 2.6 | 7.0 | 0.00 | 0.00 | 0.00 | 65 | 1018.0 |
| 20260510130503 | 46 | 334 | 2.6 | 7.0 | 0.00 | 0.00 | 0.00 | 67 | 1018.0 |
| 20260510130004 | 46 | 336 | 2.6 | 7.0 | 0.00 | 0.00 | 0.00 | 66 | 1018.0 |
| 20260510125503 | 46 | 332 | 1.7 | 5.2 | 0.00 | 0.00 | 0.00 | 67 | 1018.0 |
| 20260510125214 | 46 | 332 | 1.7 | 3.5 | 0.00 | 0.00 | 0.00 | 69 | 1017.9 |
| 20260510124504 | 45 | 329 | 1.7 | 3.5 | 0.00 | 0.00 | 0.00 | 69 | 1017.8 |
| 20260510124004 | 45 | 324 | 0.9 | 3.5 | 0.00 | 0.00 | 0.00 | 71 | 1017.7 |
| 20260510123503 | 44 | 322 | 0.9 | 2.6 | 0.00 | 0.00 | 0.00 | 71 | 1017.6 |
| 20260510123003 | 44 | 313 | 0.0 | 1.7 | 0.00 | 0.00 | 0.00 | 71 | 1017.7 |
| 20260510122503 | 43 | 295 | 0.0 | 1.7 | 0.00 | 0.00 | 0.00 | 73 | 1017.6 |
| 20260510122003 | 42 | 287 | 0.0 | 0.9 | 0.00 | 0.00 | 0.00 | 75 | 1017.6 |
| 20260510121504 | 42 | 287 | 0.0 | 0.9 | 0.00 | 0.00 | 0.00 | 76 | 1017.5 |
| 20260510121004 | 41 | 287 | 0.0 | 0.9 | 0.00 | 0.00 | 0.00 | 79 | 1017.4 |
| 20260510120716 | 41 | 287 | 0.0 | 0.9 | 0.00 | 0.00 | 0.00 | 82 | 1017.4 |
| 20260510120214 | 40 | 0 | 0.0 | 0.0 | 0.00 | 0.00 | 0.00 | 82 | 1017.3 |
| 20260510115717 | 40 | 0 | 0.0 | 0.0 | 0.00 | 0.00 | 0.00 | 82 | 1017.2 |
| 20260510115003 | 40 | 0 | 0.0 | 0.0 | 0.00 | 0.00 | 0.00 | 79 | 1017.2 |
| 20260510114503 | 40 | 287 | 0.0 | 0.9 | 0.00 | 0.00 | 0.00 | 80 | 1017.2 |
| 20260510114004 | 40 | 287 | 0.0 | 0.9 | 0.00 | 0.00 | 0.00 | 80 | 1017.2 |
| 20260510113504 | 40 | 287 | 0.0 | 0.9 | 0.00 | 0.00 | 0.00 | 80 | 1017.1 |
| 20260510113216 | 39 | 287 | 0.0 | 0.9 | 0.00 | 0.00 | 0.00 | 80 | 1017.1 |
| 20260510112503 | 39 | 286 | 0.0 | 0.9 | 0.00 | 0.00 | 0.00 | 81 | 1016.9 |
| 20260510112003 | 38 | 286 | 0.0 | 0.9 | 0.00 | 0.00 | 0.00 | 81 | 1016.8 |
| 20260510111504 | 38 | 0 | 0.0 | 0.0 | 0.00 | 0.00 | 0.00 | 81 | 1016.8 |
| 20260510111003 | 38 | 0 | 0.0 | 0.0 | 0.00 | 0.00 | 0.00 | 80 | 1016.7 |
| 20260510110504 | 38 | 0 | 0.0 | 0.0 | 0.00 | 0.00 | 0.00 | 79 | 1016.7 |
| 20260510110004 | 38 | 0 | 0.0 | 0.0 | 0.00 | 0.00 | 0.00 | 79 | 1016.7 |
| 20260510105504 | 38 | 0 | 0.0 | 0.0 | 0.00 | 0.00 | 0.00 | 79 | 1016.6 |
| 20260510105004 | 38 | 286 | 0.0 | 0.9 | 0.00 | 0.00 | 0.00 | 79 | 1016.5 |
| 20260510104503 | 38 | 286 | 0.0 | 0.9 | 0.00 | 0.00 | 0.00 | 79 | 1016.4 |
| 20260510104216 | 38 | 286 | 0.0 | 0.9 | 0.00 | 0.00 | 0.00 | 78 | 1016.4 |
| 20260510103503 | 38 | 0 | 0.0 | 0.0 | 0.00 | 0.02 | 0.00 | 77 | 1016.3 |
| 20260510103217 | 38 | 286 | 0.0 | 0.9 | 0.00 | 0.03 | 0.00 | 77 | 1016.3 |
| 20260510102715 | 38 | 286 | 0.0 | 0.9 | 0.00 | 0.04 | 0.00 | 76 | 1016.2 |
| 20260510102004 | 38 | 0 | 0.0 | 0.0 | 0.00 | 0.06 | 0.00 | 77 | 1016.1 |
| 20260510101503 | 38 | 0 | 0.0 | 0.0 | 0.00 | 0.07 | 0.00 | 78 | 1016.0 |
| 20260510101003 | 38 | 0 | 0.0 | 0.0 | 0.00 | 0.07 | 0.00 | 78 | 1015.9 |
| 20260510100504 | 38 | 0 | 0.0 | 0.0 | 0.00 | 0.07 | 0.00 | 77 | 1015.8 |
| 20260510100004 | 38 | 286 | 0.0 | 0.9 | 0.00 | 0.07 | 0.00 | 77 | 1015.8 |
| 20260510095504 | 39 | 286 | 0.0 | 0.9 | 0.00 | 0.07 | 0.00 | 76 | 1015.8 |
| 20260510095004 | 39 | 286 | 0.0 | 0.9 | 0.00 | 0.07 | 0.00 | 74 | 1015.8 |
| 20260510094714 | 40 | 286 | 0.0 | 0.9 | 0.00 | 0.08 | 0.00 | 74 | 1015.7 |
| 20260510094003 | 40 | 322 | 0.0 | 1.7 | 0.00 | 0.08 | 0.00 | 74 | 1015.7 |
| 20260510093504 | 40 | 339 | 0.0 | 1.7 | 0.00 | 0.09 | 0.00 | 74 | 1015.7 |
| 20260510093004 | 39 | 337 | 0.0 | 1.7 | 0.00 | 0.09 | 0.00 | 74 | 1015.6 |
| 20260510092716 | 39 | 335 | 0.0 | 1.7 | 0.00 | 0.09 | 0.00 | 74 | 1015.6 |
| 20260510092004 | 38 | 0 | 0.0 | 0.0 | 0.00 | 0.10 | 0.00 | 77 | 1015.4 |
| 20260510091504 | 38 | 0 | 0.0 | 0.0 | 0.00 | 0.10 | 0.00 | 79 | 1015.5 |
| 20260510091004 | 38 | 0 | 0.0 | 0.0 | 0.00 | 0.10 | 0.00 | 80 | 1015.4 |
| 20260510090718 | 38 | 0 | 0.0 | 0.0 | 0.00 | 0.10 | 0.00 | 80 | 1015.3 |
| 20260510090004 | 37 | 0 | 0.0 | 0.0 | 0.00 | 0.10 | 0.00 | 80 | 1015.1 |
| 20260510085504 | 36 | 0 | 0.0 | 0.0 | 0.00 | 0.10 | 0.00 | 81 | 1015.0 |
| 20260510085003 | 36 | 0 | 0.0 | 0.0 | 0.00 | 0.10 | 0.00 | 81 | 1015.0 |
| 20260510084503 | 36 | 0 | 0.0 | 0.0 | 0.00 | 0.10 | 0.00 | 82 | 1014.9 |
| 20260510084004 | 35 | 354 | 0.0 | 0.9 | 0.00 | 0.10 | 0.00 | 82 | 1014.8 |
| 20260510083504 | 35 | 348 | 0.0 | 0.9 | 0.00 | 0.10 | 0.00 | 83 | 1014.7 |
| 20260510083004 | 34 | 337 | 0.0 | 0.9 | 0.00 | 0.10 | 0.00 | 84 | 1014.7 |
| 20260510082503 | 33 | 224 | 0.0 | 0.9 | 0.00 | 0.10 | 0.00 | 85 | 1014.5 |
| 20260510082004 | 34 | 0 | 0.0 | 0.0 | 0.00 | 0.10 | 0.00 | 85 | 1014.4 |
| 20260510081503 | 34 | 0 | 0.0 | 0.0 | 0.00 | 0.10 | 0.00 | 84 | 1014.4 |
| 20260510081003 | 34 | 0 | 0.0 | 0.0 | 0.00 | 0.10 | 0.00 | 83 | 1014.4 |
| 20260510080504 | 34 | 224 | 0.0 | 0.9 | 0.00 | 0.10 | 0.00 | 83 | 1014.3 |
| 20260510080004 | 34 | 224 | 0.0 | 0.9 | 0.00 | 0.10 | 0.00 | 84 | 1014.4 |
| 20260510075504 | 34 | 224 | 0.0 | 0.9 | 0.00 | 0.10 | 0.00 | 84 | 1014.3 |
| 20260510075004 | 33 | 224 | 0.0 | 0.9 | 0.00 | 0.10 | 0.00 | 85 | 1014.3 |
| 20260510074503 | 33 | 224 | 0.0 | 0.9 | 0.00 | 0.10 | 0.00 | 87 | 1014.3 |
| 20260510074003 | 33 | 228 | 0.0 | 0.9 | 0.00 | 0.10 | 0.00 | 87 | 1014.3 |
| 20260510073503 | 32 | 230 | 0.0 | 0.9 | 0.00 | 0.10 | 0.00 | 87 | 1014.2 |
| 20260510073214 | 32 | 250 | 0.0 | 0.9 | 0.00 | 0.10 | 0.00 | 87 | 1014.3 |
| 20260510072504 | 32 | 0 | 0.0 | 0.0 | 0.00 | 0.10 | 0.00 | 85 | 1014.3 |
| 20260510072004 | 32 | 0 | 0.0 | 0.0 | 0.00 | 0.10 | 0.00 | 85 | 1014.3 |
| 20260510071504 | 32 | 0 | 0.0 | 0.0 | 0.00 | 0.10 | 0.00 | 84 | 1014.2 |
| 20260510071004 | 33 | 0 | 0.0 | 0.0 | 0.00 | 0.10 | 0.00 | 83 | 1014.2 |
| 20260510070714 | 33 | 0 | 0.0 | 0.0 | 0.00 | 0.10 | 0.00 | 83 | 1014.2 |
| 20260510070004 | 33 | 0 | 0.0 | 0.0 | 0.00 | 0.10 | 0.00 | 83 | 1014.2 |
| 20260510065503 | 34 | 0 | 0.0 | 0.0 | 0.00 | 0.10 | 0.00 | 83 | 1014.1 |
| 20260510065004 | 34 | 0 | 0.0 | 0.0 | 0.00 | 0.10 | 0.00 | 82 | 1014.1 |
| 20260510064504 | 34 | 0 | 0.0 | 0.0 | 0.00 | 0.10 | 0.00 | 80 | 1014.1 |
| 20260510064003 | 34 | 0 | 0.0 | 0.0 | 0.00 | 0.10 | 0.00 | 79 | 1014.0 |
| 20260510063503 | 35 | 0 | 0.0 | 0.0 | 0.00 | 0.10 | 0.00 | 77 | 1014.0 |
| 20260510063003 | 36 | 0 | 0.0 | 0.0 | 0.00 | 0.10 | 0.00 | 77 | 1014.1 |
| 20260510062503 | 36 | 250 | 0.0 | 0.9 | 0.00 | 0.10 | 0.00 | 77 | 1014.1 |
| 20260510062004 | 36 | 250 | 0.0 | 0.9 | 0.00 | 0.10 | 0.00 | 75 | 1014.1 |
| 20260510061504 | 37 | 250 | 0.0 | 0.9 | 0.00 | 0.10 | 0.00 | 74 | 1014.1 |
| 20260510061004 | 38 | 250 | 0.0 | 0.9 | 0.00 | 0.10 | 0.00 | 73 | 1014.1 |
| 20260510060503 | 38 | 0 | 0.0 | 0.0 | 0.00 | 0.10 | 0.00 | 71 | 1014.1 |
| 20260510060004 | 39 | 250 | 0.0 | 0.9 | 0.00 | 0.10 | 0.00 | 68 | 1014.1 |
| 20260510055503 | 39 | 250 | 0.0 | 0.9 | 0.00 | 0.10 | 0.00 | 68 | 1014.1 |
| 20260510055003 | 39 | 250 | 0.0 | 0.9 | 0.00 | 0.10 | 0.00 | 69 | 1014.1 |
| 20260510054503 | 38 | 250 | 0.0 | 0.9 | 0.00 | 0.10 | 0.00 | 70 | 1014.0 |
| 20260510054003 | 39 | 250 | 0.0 | 0.9 | 0.00 | 0.10 | 0.00 | 70 | 1014.0 |
| 20260510053504 | 40 | 253 | 0.0 | 0.9 | 0.00 | 0.10 | 0.00 | 66 | 1013.9 |
| 20260510053004 | 41 | 267 | 0.0 | 0.9 | 0.00 | 0.10 | 0.00 | 64 | 1013.9 |
| 20260510052503 | 41 | 275 | 0.0 | 0.9 | 0.00 | 0.10 | 0.00 | 64 | 1013.9 |
| 20260510052003 | 40 | 0 | 0.0 | 0.0 | 0.00 | 0.10 | 0.00 | 65 | 1013.8 |
| 20260510051503 | 41 | 0 | 0.0 | 0.0 | 0.00 | 0.10 | 0.00 | 64 | 1013.7 |
| 20260510051003 | 42 | 0 | 0.0 | 0.0 | 0.00 | 0.10 | 0.00 | 62 | 1013.6 |
| 20260510050504 | 42 | 0 | 0.0 | 0.0 | 0.00 | 0.10 | 0.00 | 61 | 1013.6 |
| 20260510050009 | 42 | 0 | 0.0 | 0.0 | 0.00 | 0.10 | 0.00 | 59 | 1013.7 |
| 20260510045503 | 43 | 0 | 0.0 | 0.0 | 0.00 | 0.10 | 0.10 | 59 | 1013.6 |
| 20260510045003 | 44 | 0 | 0.0 | 0.0 | 0.00 | 0.10 | 0.10 | 58 | 1013.6 |
| 20260510044503 | 44 | 0 | 0.0 | 0.0 | 0.00 | 0.10 | 0.10 | 57 | 1013.5 |
| 20260510044215 | 45 | 0 | 0.0 | 0.0 | 0.00 | 0.10 | 0.10 | 56 | 1013.5 |
| 20260510043503 | 45 | 0 | 0.0 | 0.0 | 0.00 | 0.10 | 0.10 | 53 | 1013.4 |
| 20260510043004 | 46 | 0 | 0.0 | 0.0 | 0.00 | 0.10 | 0.10 | 52 | 1013.5 |
| 20260510042504 | 46 | 315 | 0.0 | 0.9 | 0.00 | 0.10 | 0.10 | 51 | 1013.5 |
| 20260510042004 | 47 | 317 | 0.9 | 1.7 | 0.00 | 0.10 | 0.10 | 50 | 1013.5 |
| 20260510041503 | 48 | 316 | 0.9 | 2.6 | 0.00 | 0.10 | 0.10 | 49 | 1013.5 |
| 20260510041003 | 48 | 317 | 0.9 | 2.6 | 0.00 | 0.10 | 0.10 | 48 | 1013.4 |
| 20260510040504 | 48 | 319 | 1.7 | 3.5 | 0.00 | 0.10 | 0.10 | 48 | 1013.5 |
| 20260510040004 | 49 | 321 | 1.7 | 3.5 | 0.00 | 0.10 | 0.10 | 48 | 1013.4 |
| 20260510035504 | 49 | 322 | 1.7 | 3.5 | 0.00 | 0.10 | 0.10 | 47 | 1013.4 |
| 20260510035004 | 49 | 322 | 1.7 | 3.5 | 0.00 | 0.10 | 0.10 | 47 | 1013.3 |
| 20260510034504 | 49 | 324 | 1.7 | 4.3 | 0.00 | 0.10 | 0.10 | 47 | 1013.3 |
| 20260510034003 | 49 | 325 | 1.7 | 4.3 | 0.00 | 0.10 | 0.10 | 46 | 1013.3 |
| 20260510033503 | 49 | 326 | 1.7 | 4.3 | 0.00 | 0.10 | 0.10 | 46 | 1013.2 |
| 20260510033004 | 50 | 325 | 1.7 | 4.3 | 0.00 | 0.10 | 0.10 | 46 | 1013.1 |
| 20260510032503 | 50 | 323 | 1.7 | 4.3 | 0.00 | 0.10 | 0.10 | 46 | 1013.1 |
| 20260510032217 | 50 | 323 | 1.7 | 4.3 | 0.00 | 0.10 | 0.10 | 46 | 1013.0 |
| 20260510031503 | 50 | 326 | 1.7 | 3.5 | 0.00 | 0.10 | 0.10 | 45 | 1012.9 |
| 20260510031213 | 50 | 327 | 1.7 | 3.5 | 0.00 | 0.10 | 0.10 | 45 | 1012.9 |
| 20260510030503 | 51 | 324 | 1.7 | 4.3 | 0.00 | 0.10 | 0.10 | 43 | 1012.8 |
| 20260510030004 | 51 | 324 | 1.7 | 4.3 | 0.00 | 0.10 | 0.10 | 43 | 1012.7 |
| 20260510025504 | 51 | 328 | 2.6 | 6.1 | 0.00 | 0.10 | 0.10 | 42 | 1012.5 |
| 20260510025003 | 52 | 330 | 2.6 | 6.1 | 0.00 | 0.10 | 0.10 | 41 | 1012.4 |
| 20260510024504 | 52 | 329 | 2.6 | 5.2 | 0.00 | 0.10 | 0.10 | 41 | 1012.3 |
| 20260510024005 | 52 | 328 | 2.6 | 7.0 | 0.00 | 0.10 | 0.10 | 41 | 1012.2 |
| 20260510023503 | 52 | 327 | 3.5 | 7.0 | 0.00 | 0.10 | 0.10 | 40 | 1012.1 |
| 20260510023003 | 52 | 325 | 3.5 | 7.0 | 0.00 | 0.10 | 0.10 | 40 | 1011.9 |
| 20260510022504 | 52 | 324 | 2.6 | 7.0 | 0.00 | 0.10 | 0.10 | 40 | 1011.8 |
| 20260510022213 | 52 | 325 | 2.6 | 6.1 | 0.00 | 0.10 | 0.10 | 40 | 1011.8 |
| 20260510021504 | 52 | 325 | 2.6 | 6.1 | 0.00 | 0.10 | 0.10 | 40 | 1011.6 |
| 20260510021004 | 53 | 326 | 2.6 | 5.2 | 0.00 | 0.10 | 0.10 | 39 | 1011.5 |
| 20260510020717 | 53 | 326 | 2.6 | 6.1 | 0.00 | 0.10 | 0.10 | 39 | 1011.4 |
| 20260510020004 | 53 | 325 | 2.6 | 6.1 | 0.00 | 0.10 | 0.10 | 39 | 1011.2 |
| 20260510015504 | 53 | 326 | 2.6 | 5.2 | 0.00 | 0.10 | 0.10 | 38 | 1011.2 |
| 20260510015216 | 53 | 326 | 2.6 | 5.2 | 0.00 | 0.10 | 0.10 | 39 | 1011.2 |
| 20260510014504 | 53 | 328 | 2.6 | 6.1 | 0.00 | 0.10 | 0.10 | 38 | 1011.1 |
| 20260510014217 | 53 | 329 | 3.5 | 7.8 | 0.00 | 0.10 | 0.10 | 38 | 1011.0 |
| 20260510013504 | 53 | 327 | 2.6 | 7.8 | 0.00 | 0.10 | 0.10 | 37 | 1010.8 |
| 20260510013004 | 54 | 320 | 2.6 | 6.1 | 0.00 | 0.10 | 0.10 | 37 | 1010.7 |
| 20260510012504 | 54 | 323 | 2.6 | 6.1 | 0.00 | 0.10 | 0.10 | 36 | 1010.7 |
| 20260510012004 | 54 | 328 | 3.5 | 10.4 | 0.00 | 0.10 | 0.10 | 36 | 1010.6 |
| 20260510011503 | 54 | 326 | 3.5 | 10.4 | 0.00 | 0.10 | 0.10 | 36 | 1010.5 |
| 20260510011003 | 54 | 327 | 3.5 | 8.7 | 0.00 | 0.10 | 0.10 | 36 | 1010.4 |
| 20260510010717 | 54 | 330 | 2.6 | 8.7 | 0.00 | 0.10 | 0.10 | 36 | 1010.4 |
| 20260510010004 | 54 | 335 | 3.5 | 6.1 | 0.00 | 0.10 | 0.10 | 37 | 1010.3 |
| 20260510005503 | 54 | 329 | 3.5 | 6.1 | 0.00 | 0.10 | 0.10 | 37 | 1010.2 |
| 20260510005217 | 54 | 331 | 3.5 | 7.0 | 0.00 | 0.10 | 0.10 | 36 | 1010.1 |
| 20260510004504 | 55 | 339 | 4.3 | 7.8 | 0.00 | 0.10 | 0.10 | 35 | 1010.1 |
| 20260510004217 | 55 | 340 | 4.3 | 7.8 | 0.00 | 0.10 | 0.10 | 35 | 1010.1 |
| 20260510003503 | 54 | 334 | 3.5 | 7.8 | 0.00 | 0.10 | 0.10 | 36 | 1010.0 |
| 20260510003004 | 55 | 334 | 4.3 | 7.8 | 0.00 | 0.10 | 0.10 | 36 | 1010.0 |
| 20260510002503 | 55 | 334 | 5.2 | 8.7 | 0.00 | 0.10 | 0.10 | 35 | 1009.9 |
| 20260510002004 | 56 | 335 | 5.2 | 8.7 | 0.00 | 0.10 | 0.10 | 34 | 1009.9 |
| 20260510001504 | 56 | 337 | 5.2 | 8.7 | 0.00 | 0.10 | 0.10 | 34 | 1009.9 |
| 20260510001004 | 56 | 342 | 4.3 | 7.8 | 0.00 | 0.10 | 0.10 | 35 | 1009.7 |
| 20260510000504 | 56 | 342 | 4.3 | 7.8 | 0.00 | 0.10 | 0.10 | 35 | 1009.7 |
| 20260510000004 | 56 | 335 | 4.3 | 8.7 | 0.00 | 0.10 | 0.10 | 35 | 1009.6 |
| 20260509235504 | 56 | 331 | 3.5 | 8.7 | 0.00 | 0.10 | 0.10 | 35 | 1009.5 |
| 20260509235003 | 56 | 329 | 3.5 | 9.6 | 0.00 | 0.10 | 0.10 | 35 | 1009.6 |
| 20260509234504 | 56 | 331 | 5.2 | 11.3 | 0.00 | 0.10 | 0.10 | 35 | 1009.5 |
| 20260509234003 | 56 | 336 | 5.2 | 11.3 | 0.00 | 0.10 | 0.10 | 34 | 1009.5 |
| 20260509233504 | 56 | 336 | 5.2 | 9.6 | 0.00 | 0.10 | 0.10 | 34 | 1009.4 |
| 20260509233004 | 57 | 332 | 5.2 | 12.2 | 0.00 | 0.10 | 0.10 | 34 | 1009.3 |
| 20260509232503 | 57 | 334 | 5.2 | 12.2 | 0.00 | 0.10 | 0.10 | 34 | 1009.3 |
| 20260509232003 | 57 | 333 | 5.2 | 9.6 | 0.00 | 0.10 | 0.10 | 34 | 1009.2 |
| 20260509231504 | 57 | 327 | 4.3 | 8.7 | 0.00 | 0.10 | 0.10 | 34 | 1009.2 |
| 20260509231003 | 57 | 334 | 4.3 | 11.3 | 0.00 | 0.10 | 0.10 | 33 | 1009.1 |
| 20260509230503 | 58 | 338 | 4.3 | 11.3 | 0.00 | 0.10 | 0.10 | 34 | 1009.1 |
| 20260509230004 | 58 | 338 | 4.3 | 11.3 | 0.00 | 0.10 | 0.10 | 35 | 1009.1 |
| 20260509225503 | 57 | 337 | 6.1 | 13.0 | 0.00 | 0.10 | 0.10 | 35 | 1009.0 |
| 20260509225003 | 57 | 342 | 6.1 | 13.0 | 0.00 | 0.10 | 0.10 | 33 | 1008.8 |